Back to catalog

STARLINK-2757

AliveCommunicationsVLEO
NORAD 48604·PAYLOAD·🇺🇸 United States

Launched May 15, 2021 from Cape Canaveral Space Force Station

Loading…

Next Passes (next 24 hours)

TLE

FreshSource: CelesTrak SupGP

Epoch: Sep 14, 2026, 12:39 UTC

1 48604C 21041BD  26257.52756944 -.00016815  00000+0 -54091-3 0  2575
2 48604  53.1603 350.1169 0001204  78.7905 333.2829 15.31699849    16

Track STARLINK-2757 in real time with AllMySat

Download on the App Store